This demonstration page uses our WeatherBlox Daily Observations layout. Learn more.

Left ArrowRight Arrow

Hourly Observations for August 15, 2021

Temp ( °F °C ) Dew Point ( °F °C ) Humidity (%) Winds ( mph kmh ) Pressure ( in mb ) Visibility ( mi km ) Precip ( " mm )
12:53 am 00:53 Cloudy with Haze 86 30 61 16.1 43 43 Calm 29.93 1014 6 10 0.00 0.00
1:53 am 01:53 Cloudy with Haze 82 27.8 59 15 46 46 Calm 29.93 1014 5 8 0.00 0.00
2:53 am 02:53 Cloudy with Haze 80 26.7 59 15 49 49 Calm 29.93 1014 5 8 0.00 0.00
3:53 am 03:53 Cloudy with Haze 79 26.1 59 15 50 50 Calm 29.94 1014 5 8 0.00 0.00
4:53 am 04:53 Mostly Cloudy with Haze 77 25 57 13.9 50 50 Calm 29.94 1014 4 6 0.00 0.00
5:53 am 05:53 Mostly Cloudy with Haze 75 23.9 58 14.4 55 55 Calm 29.94 1014 4 6 0.00 0.00
6:28 am 06:28 Mostly Cloudy with Haze 74 23.3 58 14.4 57 57 Calm 29.95 1014 2 3 0.00 0.00
6:53 am 06:53 Mostly Cloudy with Haze 74 23.3 58 14.4 57 57 Calm 29.94 1014 2 3 0.00 0.00
7:53 am 07:53 Cloudy with Haze 79 26.1 59 15 50 50 Calm 29.94 1014 2 3 0.00 0.00
8:53 am 08:53 Cloudy with Haze 82 27.8 58 14.4 44 44 N 3 6 29.93 1014 2 3 0.00 0.00
9:53 am 09:53 Cloudy with Haze 87 30.6 56 13.3 35 35 N 5 7 29.91 1013 2 3 0.00 0.00
10:23 am 10:23 Cloudy with Haze 90 32.2 55 12.8 31 31 N 6 9 29.89 1012 2 3 0.00 0.00
10:53 am 10:53 Cloudy with Haze 93 33.9 56 13.3 29 29 NW 3 6 29.89 1012 2 3 0.00 0.00
11:06 am 11:06 Cloudy with Haze 94 34.4 56 13.3 28 28 N 5 7 29.87 1012 3 4 0.00 0.00
11:53 am 11:53 Cloudy with Haze 98 36.7 56 13.3 24 24 Calm 29.86 1011 3 4 0.00 0.00
12:18 pm 12:18 Cloudy with Haze 99 37.2 56 13.3 24 24 NNW 3 6 29.83 1010 2 3 0.00 0.00
12:53 pm 12:53 Cloudy with Haze 103 39.4 56 13.3 21 21 Calm 29.83 1010 2 3 0.00 0.00
1:19 pm 13:19 Cloudy with Haze 105 40.6 55 12.8 19 19 Calm 29.79 1009 2 3 0.00 0.00
1:53 pm 13:53 Cloudy with Haze 109 42.8 53 11.7 16 16 Calm 29.79 1009 2 2 0.00 0.00
2:20 pm 14:20 Cloudy with Haze 111 43.9 53 11.7 15 15 Calm 29.75 1007 1 2 0.00 0.00
2:45 pm 14:45 Cloudy with Haze 112 44.4 53 11.7 14 14 Calm 29.74 1007 2 2 0.00 0.00
2:53 pm 14:53 Cloudy with Haze 114 45.6 48 8.9 11 11 VRB 3 6 29.76 1008 1 2 0.00 0.00
3:53 pm 15:53 Cloudy with Haze 115 46.1 39 3.9 8 8 WNW 8 13 29.74 1007 1 2 0.00 0.00
4:30 pm 16:30 Cloudy with Haze 114 45.6 40 4.4 8 8 WNW 12 19 29.71 1006 1 1 0.00 0.00
4:53 pm 16:53 Cloudy with Haze 113 45 38 3.3 8 8 NW 10 17 29.73 1007 1 1 0.00 0.00
5:04 pm 17:04 Cloudy with Haze 112 44.4 38 3.3 8 8 WNW 10 17 29.70 1006 1 2 0.00 0.00
5:53 pm 17:53 Cloudy with Haze 110 43.3 40 4.4 9 9 NW 10 17 29.72 1006 1 2 0.00 0.00
6:53 pm 18:53 Cloudy with Haze 107 41.7 43 6.1 11 11 WNW 6 9 29.71 1006 1 2 0.00 0.00
7:48 pm 19:48 Cloudy with Haze 99 37 64 18 33 33 SSE 13 20 29.70 1006 2 3 0.00 0.00
7:53 pm 19:53 Cloudy with Haze 98 36.7 65 18.3 34 34 SSE 10 17 29.72 1006 2 3 0.00 0.00
8:16 pm 20:16 Cloudy with Haze 96 35.6 68 20 40 40 SSE 9 15 29.71 1006 3 5 0.00 0.00
8:53 pm 20:53 Cloudy with Haze 93 33.9 70 21.1 47 47 S 8 13 29.74 1007 4 6 0.00 0.00
9:53 pm 21:53 Cloudy with Haze 90 32.2 68 20 48 48 S 9 15 29.75 1007 6 10 0.00 0.00
10:53 pm 22:53 Cloudy with Haze 88 31.1 64 17.8 45 45 S 10 17 29.76 1008 7 11 0.00 0.00
11:53 pm 23:53 Cloudy with Haze 86 30 63 17.2 46 46 SE 3 6 29.77 1008 7 11 0.00 0.00

Powered by AerisWeather